North Conway, NH

6:47 PM EST on November 18, 2019 (GMT -0500)
North Conway

Weather History for KCWN - October, 2019

Change the Weather History Date:

Wednesday, October 23, 2019

  Actual Average (KIZG) Record (KIZG)
Temperature  
Mean Temperature 40 °F -  
Max Temperature 53 °F 53 °F 73 °F (2007)
Min Temperature 28 °F 29 °F 18 °F (1997)
Degree Days  
Heating Degree Days 24    
Moisture  
Dew Point 24 °F    
Average Humidity 58    
Maximum Humidity 100    
Minimum Humidity 24    
Precipitation  
Precipitation 0.05 in - - ()
Sea Level Pressure  
Sea Level Pressure 29.73 in    
Wind  
Wind Speed 13 mph (NW)    
Max Wind Speed 21 mph    
Max Gust Speed 40 mph    
Visibility 7 miles    
Events Rain , Snow    
Averages and records for this station are not official NWS values.
T = Trace of Precipitation, MM = Missing Value Source: NWS Daily Summary

Daily Weather History Graph

Daily Weather History Graph

Search for Another Location

Airport or City:

Astronomy

Oct. 23, 2019 Rise Set
Actual Time 7:09 AM EDT 5:48 PM EDT
Civil Twilight 6:39 AM EDT 6:17 PM EDT
Nautical Twilight 6:05 AM EDT 6:51 PM EDT
Astronomical Twilight 5:32 AM EDT 7:24 PM EDT
Moon 1:08 AM EDT (10/23) 3:50 PM EDT (10/23)
Length of Visible Light 11h 38m
Length of Day
10h 39m
Waning Crescent, 27% of the Moon is Illuminated
Oct 23
Waning Crescent
Oct 27
New
Nov 4
First Quarter
Nov 12
Full
Nov 19
Last Quarter

Hourly Weather History & Observations

Time (EDT) Temp. Windchill Dew Point Humidity Pressure Visibility Wind Dir Wind Speed Gust Speed Precip Events Conditions
12:35 AM 51.8 °F - 17.6 °F 26% 29.62 in 10.0 mi WNW 17.3 mph 35.7 mph N/A   Squalls
12:58 AM 53.1 °F - 18.9 °F 26% 29.58 in 10.0 mi WNW 12.7 mph 40.3 mph N/A   Clear
12:59 AM 53.6 °F - 19.4 °F 26% 29.57 in 10.0 mi NW 16.1 mph 27.6 mph N/A   Clear
1:15 AM 51.8 °F - 15.8 °F 24% 29.57 in 10.0 mi NW 11.5 mph 29.9 mph N/A   Clear
1:58 AM 49.5 °F - 17.8 °F 29% 29.55 in 10.0 mi SSW 9.2 mph - N/A   Clear
2:59 AM 48.2 °F - 19.0 °F 32% 29.56 in 10.0 mi WSW 8.1 mph - N/A   Clear
3:56 AM 48.6 °F - 18.5 °F 30% 29.54 in 10.0 mi SSE 9.2 mph - N/A   Clear
4:58 AM 46.9 °F - 16.3 °F 29% 29.56 in 10.0 mi WNW 8.1 mph - N/A   Clear
5:58 AM 46.2 °F 45.0 °F 16.5 °F 31% 29.55 in 10.0 mi South 3.5 mph - N/A   Clear
6:58 AM 45.9 °F - 16.0 °F 30% 29.57 in 10.0 mi Calm Calm - N/A   Clear
7:58 AM 46.8 °F - 16.2 °F 29% 29.62 in 10.0 mi NW 9.2 mph - N/A   Clear
9:58 AM 47.5 °F - 16.7 °F 29% 29.63 in 10.0 mi SE 3.5 mph - N/A   Clear
10:58 AM 39.0 °F 31.4 °F 23.7 °F 54% 29.70 in 10.0 mi NNW 12.7 mph - N/A   Clear
11:58 AM 38.7 °F 30.9 °F 27.1 °F 63% 29.70 in 10.0 mi North 12.7 mph 19.6 mph N/A   Clear
12:58 PM 41.7 °F 37.3 °F 25.9 °F 53% 29.68 in 10.0 mi North 6.9 mph - N/A   Partly Cloudy
1:58 PM 48.6 °F - 25.3 °F 40% 29.64 in 10.0 mi ESE 8.1 mph - N/A   Clear
2:58 PM 50.2 °F - 24.8 °F 37% 29.62 in 10.0 mi SSE 11.5 mph 18.4 mph N/A   Clear
3:58 PM 50.2 °F - 25.5 °F 38% 29.98 in 10.0 mi SE 16.1 mph 21.9 mph N/A   Partly Cloudy
4:41 PM 48.2 °F - 24.8 °F 40% 29.62 in 10.0 mi SSE 16.1 mph 20.7 mph N/A   Partly Cloudy
4:58 PM 47.5 °F - 25.2 °F 42% 29.63 in 10.0 mi SE 12.7 mph 20.7 mph N/A   Scattered Clouds
5:58 PM 45.0 °F 37.9 °F 29.5 °F 55% 29.72 in 10.0 mi North 16.1 mph 20.7 mph N/A   Mostly Cloudy
6:03 PM 39.2 °F 30.8 °F 30.2 °F 70% 29.73 in 10.0 mi NNW 15.0 mph - N/A   Overcast
6:13 PM 39.2 °F 31.2 °F 30.2 °F 70% 29.73 in 10.0 mi NNW 13.8 mph 23.0 mph N/A   Overcast
6:14 PM 39.2 °F 31.2 °F 30.2 °F 70% 29.73 in 10.0 mi NNW 13.8 mph 23.0 mph N/A Rain Light Rain Showers
6:58 PM 34.7 °F 25.9 °F 32.4 °F 91% 29.78 in 6.0 mi NW 12.7 mph 19.6 mph N/A Rain , Snow Light Rain Showers
7:28 PM 33.8 °F 23.5 °F 32.0 °F 93% 29.81 in 1.8 mi North 16.1 mph 23.0 mph N/A Snow Light Snow Showers
7:58 PM 31.6 °F 20.0 °F 29.5 °F 92% 29.83 in 1.8 mi NNW 18.4 mph 26.5 mph 0.01 in Snow Light Snow Showers
8:08 PM 32.0 °F 20.8 °F 30.2 °F 93% 29.84 in 0.8 mi NNW 17.3 mph 26.5 mph N/A Snow Light Snow Showers
8:58 PM 30.6 °F 19.4 °F 29.5 °F 96% 29.86 in 0.2 mi NNW 16.1 mph 25.3 mph 0.01 in Snow Heavy Snow Showers
9:03 PM 30.2 °F 17.4 °F 30.2 °F 100% 29.88 in 0.2 mi NNW 20.7 mph 25.3 mph N/A Snow Heavy Snow Showers
9:18 PM 30.2 °F 19.3 °F 30.2 °F 100% 29.90 in 0.4 mi NW 15.0 mph 26.5 mph N/A Snow Heavy Snow Showers
9:58 PM 29.5 °F 16.8 °F 28.4 °F 96% 29.91 in 0.2 mi NNW 19.6 mph 28.8 mph 0.02 in Snow Heavy Snow
10:58 PM 28.8 °F 16.6 °F 27.1 °F 94% 29.97 in 0.5 mi NNW 17.3 mph 27.6 mph N/A Snow Snow
11:03 PM 28.4 °F 17.5 °F 26.6 °F 93% 29.97 in 0.5 mi NNW 13.8 mph 26.5 mph N/A Snow Snow
11:33 PM 28.4 °F 17.0 °F 26.6 °F 93% 29.98 in 0.4 mi NNW 15.0 mph 21.9 mph N/A Snow Snow
11:58 PM 28.6 °F 17.2 °F 26.4 °F 92% 30.00 in 0.6 mi NW 15.0 mph 21.9 mph 0.01 in Snow Snow